PDA25S UKBB-DTTJ

Flight info

Callsign PDA25S
Flight time 3h 34m
Altitude 38000
Route VESEL M141 IVF M986 LONLA/N0440F380 DCT PARAK DCT SOMUN DCT KEB DCT GEBNI DCT AIOSA/N0427F370 DCT INGAB DCT LONDI DCT KOLEX/N0420F360 DCT RALAK UG362 RIMSA UP623 JBA
Aircraft IL76/H-SDGWRY/L

Departure

Time 2026-04-22 09:34
Airport Boryspil International Airport (UKBB)

Arrival

Time 2026-04-22 13:08
Airport Djerba Zarzis International Airport (DTTJ)
Time Latitude Longitude Altitude Speed Heading
2026-04-22 09:26 50.33415 30.89591 419 ft 0 kts 184°
2026-04-22 09:31 50.33409 30.89590 419 ft 1 kts 184°
2026-04-22 09:31 50.33398 30.89589 419 ft 2 kts 184°
2026-04-22 09:31 50.33367 30.89587 419 ft 6 kts 175°
2026-04-22 09:32 50.33342 30.89627 418 ft 6 kts 99°
2026-04-22 09:32 50.33337 30.89702 418 ft 7 kts 93°
2026-04-22 09:32 50.33334 30.89800 418 ft 10 kts 93°
2026-04-22 09:32 50.33331 30.89918 418 ft 12 kts 92°
2026-04-22 09:33 50.33327 30.90060 418 ft 13 kts 93°
2026-04-22 09:33 50.33321 30.90221 418 ft 16 kts 94°
2026-04-22 09:33 50.33341 30.90395 418 ft 16 kts 47°
2026-04-22 09:33 50.33488 30.90454 418 ft 33 kts
2026-04-22 09:34 50.33964 30.90490 412 ft 106 kts
2026-04-22 09:34 50.34880 30.90558 584 ft 149 kts
2026-04-22 09:34 50.35916 30.90607 1266 ft 149 kts
2026-04-22 09:35 50.37762 30.90791 2943 ft 133 kts
2026-04-22 09:35 50.38664 30.90968 3614 ft 134 kts
2026-04-22 09:35 50.39690 30.91146 3814 ft 170 kts
2026-04-22 09:35 50.41023 30.91349 3868 ft 217 kts
2026-04-22 09:36 50.42561 30.91564 4871 ft 226 kts
2026-04-22 09:36 50.44070 30.91766 6117 ft 222 kts
2026-04-22 09:36 50.45580 30.91960 7227 ft 223 kts
2026-04-22 09:36 50.47107 30.92150 8235 ft 227 kts
2026-04-22 09:37 50.48688 30.92344 9230 ft 231 kts
2026-04-22 09:37 50.50274 30.92579 10186 ft 234 kts 12°
2026-04-22 09:37 50.51629 30.93934 11012 ft 244 kts 51°
2026-04-22 09:37 50.52155 30.96435 11912 ft 254 kts 86°
2026-04-22 09:38 50.51627 30.99077 12773 ft 265 kts 122°
2026-04-22 09:38 50.50177 31.00877 13595 ft 276 kts 156°
2026-04-22 09:38 50.48269 31.01162 14379 ft 284 kts 191°
2026-04-22 09:38 50.46449 31.00003 15099 ft 290 kts 206°
2026-04-22 09:39 50.44484 30.98712 15099 ft 325 kts 202°
2026-04-22 09:39 50.42298 30.97426 15589 ft 340 kts 200°
2026-04-22 09:39 50.40092 30.96208 16434 ft 343 kts 199°
2026-04-22 09:39 50.37839 30.94997 17299 ft 345 kts 199°
2026-04-22 09:40 50.35564 30.93791 18064 ft 349 kts 199°
2026-04-22 09:40 50.33238 30.92561 18817 ft 354 kts 199°
2026-04-22 09:40 50.30921 30.91338 19537 ft 358 kts 199°
2026-04-22 09:40 50.28641 30.89776 20196 ft 361 kts 216°
2026-04-22 09:41 50.26928 30.86969 20885 ft 361 kts 233°
2026-04-22 09:41 50.25337 30.83889 21574 ft 365 kts 233°
2026-04-22 09:41 50.23759 30.80801 22245 ft 369 kts 233°
2026-04-22 09:41 50.22143 30.77663 22935 ft 372 kts 233°
2026-04-22 09:42 50.20515 30.74520 23600 ft 376 kts 233°
2026-04-22 09:42 50.18885 30.71372 24229 ft 380 kts 233°
2026-04-22 09:42 50.17215 30.68156 24814 ft 384 kts 233°
2026-04-22 09:42 50.15529 30.64910 25420 ft 387 kts 232°
2026-04-22 09:43 50.13830 30.61650 25986 ft 391 kts 232°
2026-04-22 09:43 50.12124 30.58376 26553 ft 394 kts 232°
2026-04-22 09:43 50.10399 30.55071 27080 ft 398 kts 232°
2026-04-22 09:43 50.08640 30.51704 27592 ft 401 kts 232°
2026-04-22 09:44 50.06876 30.48334 28104 ft 404 kts 232°
2026-04-22 09:44 50.05097 30.44936 28601 ft 408 kts 232°
2026-04-22 09:44 50.03307 30.41524 29087 ft 410 kts 232°
2026-04-22 09:44 50.01522 30.38124 29540 ft 414 kts 232°
2026-04-22 09:45 49.99680 30.34623 29995 ft 417 kts 231°
2026-04-22 09:45 49.97844 30.31136 30455 ft 420 kts 231°
2026-04-22 09:45 49.95999 30.27639 30860 ft 423 kts 231°
2026-04-22 09:45 49.94135 30.24108 31233 ft 427 kts 231°
2026-04-22 09:46 49.92249 30.20544 31552 ft 429 kts 231°
2026-04-22 09:46 49.90370 30.16999 31850 ft 431 kts 231°
2026-04-22 09:46 49.88456 30.13388 32142 ft 433 kts 231°
2026-04-22 09:46 49.86538 30.09776 32417 ft 435 kts 231°
2026-04-22 09:47 49.84629 30.06186 32676 ft 437 kts 231°
2026-04-22 09:47 49.82709 30.02579 32929 ft 438 kts 231°
2026-04-22 09:47 49.80767 29.98936 33173 ft 439 kts 231°
2026-04-22 09:47 49.78805 29.95261 33330 ft 442 kts 231°
2026-04-22 09:48 49.76855 29.91613 33472 ft 444 kts 231°
2026-04-22 09:48 49.74896 29.87954 33609 ft 445 kts 231°
2026-04-22 09:48 49.72935 29.84296 33753 ft 445 kts 231°
2026-04-22 09:48 49.70967 29.80632 33888 ft 445 kts 231°
2026-04-22 09:49 49.67007 29.73268 33984 ft 450 kts 231°
2026-04-22 09:49 49.63524 29.65456 33958 ft 436 kts 254°
2026-04-22 09:50 49.63147 29.61653 33984 ft 426 kts 272°
2026-04-22 09:50 49.63691 29.57287 33983 ft 416 kts 294°
2026-04-22 09:50 49.65239 29.53606 33986 ft 408 kts 316°
2026-04-22 09:50 49.67536 29.51170 33982 ft 400 kts 339°
2026-04-22 09:51 49.70050 29.49447 33970 ft 399 kts 328°
2026-04-22 09:51 49.71960 29.46337 33987 ft 401 kts 304°
2026-04-22 09:51 49.72910 29.42376 34065 ft 405 kts 282°
2026-04-22 09:51 49.73047 29.37984 34103 ft 417 kts 269°
2026-04-22 09:52 49.72684 29.33442 34063 ft 431 kts 261°
2026-04-22 09:52 49.72042 29.28972 34012 ft 432 kts 257°
2026-04-22 09:52 49.70388 29.20155 33996 ft 427 kts 253°
2026-04-22 09:53 49.68527 29.11443 34004 ft 428 kts 252°
2026-04-22 09:53 49.66599 29.02786 34007 ft 428 kts 252°
2026-04-22 09:54 49.64653 28.94180 34006 ft 428 kts 252°
2026-04-22 09:54 49.62679 28.85515 34005 ft 428 kts 252°
2026-04-22 09:55 49.60714 28.76935 34011 ft 428 kts 252°
2026-04-22 09:55 49.58730 28.68307 34008 ft 427 kts 252°
2026-04-22 09:56 49.56738 28.59686 34010 ft 428 kts 252°
2026-04-22 09:56 49.54749 28.51106 34014 ft 428 kts 252°
2026-04-22 09:57 49.52751 28.42525 34014 ft 429 kts 252°
2026-04-22 09:57 49.50727 28.33867 34013 ft 429 kts 251°
2026-04-22 09:58 49.48717 28.25303 34021 ft 429 kts 251°
2026-04-22 09:58 49.46690 28.16696 34019 ft 428 kts 251°
2026-04-22 09:59 49.44671 28.08163 34016 ft 429 kts 251°
2026-04-22 09:59 49.42629 27.99565 34013 ft 429 kts 251°
2026-04-22 10:00 49.40579 27.90966 34014 ft 430 kts 251°
2026-04-22 10:00 49.38712 27.82336 34004 ft 428 kts 259°
2026-04-22 10:01 49.37436 27.73468 34019 ft 428 kts 259°
2026-04-22 10:01 49.36133 27.64537 34018 ft 428 kts 259°
2026-04-22 10:02 49.34830 27.55682 34022 ft 428 kts 259°
2026-04-22 10:02 49.33518 27.46834 34024 ft 428 kts 259°
2026-04-22 10:03 49.32192 27.37949 34032 ft 429 kts 259°
2026-04-22 10:03 49.30859 27.29056 34034 ft 429 kts 258°
2026-04-22 10:04 49.29524 27.20204 34035 ft 429 kts 258°
2026-04-22 10:04 49.28181 27.11350 34037 ft 429 kts 258°
2026-04-22 10:05 49.26826 27.02463 34045 ft 429 kts 258°
2026-04-22 10:05 49.25471 26.93627 34037 ft 429 kts 258°
2026-04-22 10:06 49.24105 26.84767 34051 ft 430 kts 258°
2026-04-22 10:06 49.22729 26.75899 34052 ft 431 kts 258°
2026-04-22 10:07 49.21342 26.67003 34053 ft 430 kts 258°
2026-04-22 10:07 49.19957 26.58165 34053 ft 429 kts 258°
2026-04-22 10:08 49.18559 26.49295 34057 ft 430 kts 258°
2026-04-22 10:08 49.17159 26.40461 34055 ft 429 kts 258°
2026-04-22 10:09 49.15751 26.31641 34055 ft 429 kts 257°
2026-04-22 10:09 49.14331 26.22809 34059 ft 429 kts 257°
2026-04-22 10:10 49.12909 26.14012 34053 ft 430 kts 257°
2026-04-22 10:10 49.11475 26.05178 34053 ft 430 kts 257°
2026-04-22 10:11 49.10034 25.96355 34058 ft 430 kts 257°
2026-04-22 10:11 49.08596 25.87599 34057 ft 429 kts 257°
2026-04-22 10:12 49.07144 25.78804 34052 ft 429 kts 257°
2026-04-22 10:12 49.05686 25.70014 34068 ft 429 kts 257°
2026-04-22 10:13 49.04224 25.61239 34062 ft 429 kts 257°
2026-04-22 10:13 49.02745 25.52412 34061 ft 430 kts 257°
2026-04-22 10:14 49.01270 25.43650 34059 ft 429 kts 257°
2026-04-22 10:14 48.99783 25.34878 34064 ft 431 kts 257°
2026-04-22 10:15 48.98290 25.26104 34060 ft 429 kts 257°
2026-04-22 10:15 48.96787 25.17319 34073 ft 429 kts 257°
2026-04-22 10:16 48.95280 25.08553 34070 ft 428 kts 257°
2026-04-22 10:16 48.93777 24.99836 34077 ft 428 kts 257°
2026-04-22 10:17 48.92258 24.91098 34081 ft 429 kts 257°
2026-04-22 10:17 48.90733 24.82356 34078 ft 430 kts 257°
2026-04-22 10:18 48.89199 24.73610 34088 ft 430 kts 257°
2026-04-22 10:18 48.87503 24.64941 34073 ft 430 kts 253°
2026-04-22 10:19 48.85597 24.56276 34072 ft 430 kts 253°
2026-04-22 10:19 48.83709 24.47716 34074 ft 429 kts 253°
2026-04-22 10:20 48.81805 24.39113 34065 ft 430 kts 253°
2026-04-22 10:20 48.79909 24.30579 34059 ft 431 kts 253°
2026-04-22 10:21 48.77987 24.21962 34048 ft 431 kts 253°
2026-04-22 10:21 48.76074 24.13417 34045 ft 430 kts 253°
2026-04-22 10:22 48.74157 24.04892 34034 ft 430 kts 253°
2026-04-22 10:22 48.72232 23.96369 34044 ft 429 kts 253°
2026-04-22 10:23 48.70295 23.87827 34030 ft 429 kts 253°
2026-04-22 10:23 48.68356 23.79311 34027 ft 429 kts 253°
2026-04-22 10:24 48.66416 23.70811 34024 ft 429 kts 253°
2026-04-22 10:24 48.64445 23.62306 34031 ft 430 kts 252°
2026-04-22 10:25 48.62373 23.53899 34041 ft 430 kts 252°
2026-04-22 10:25 48.60280 23.45425 34061 ft 430 kts 252°
2026-04-22 10:26 48.58192 23.37008 34070 ft 430 kts 252°
2026-04-22 10:26 48.56105 23.28620 34073 ft 430 kts 251°
2026-04-22 10:27 48.54003 23.20202 34079 ft 429 kts 251°
2026-04-22 10:27 48.52081 23.11631 34081 ft 428 kts 254°
2026-04-22 10:28 48.50216 23.03100 34085 ft 429 kts 253°
2026-04-22 10:28 48.48343 22.94585 34084 ft 429 kts 253°
2026-04-22 10:29 48.46462 22.86083 34093 ft 429 kts 253°
2026-04-22 10:29 48.44548 22.77609 34100 ft 429 kts 253°
2026-04-22 10:30 48.42602 22.69119 34096 ft 428 kts 253°
2026-04-22 10:30 48.40668 22.60712 34101 ft 427 kts 253°
2026-04-22 10:31 48.38714 22.52253 34098 ft 428 kts 253°
2026-04-22 10:31 48.36766 22.43860 34098 ft 428 kts 253°
2026-04-22 10:32 48.34799 22.35434 34101 ft 428 kts 252°
2026-04-22 10:32 48.33266 22.31577 34066 ft 432 kts 228°
2026-04-22 10:32 48.30963 22.28737 34115 ft 434 kts 216°
2026-04-22 10:33 48.26064 22.23452 34099 ft 434 kts 216°
2026-04-22 10:33 48.21163 22.18207 34098 ft 433 kts 216°
2026-04-22 10:34 48.16273 22.12982 34096 ft 433 kts 216°
2026-04-22 10:34 48.11406 22.07793 34092 ft 433 kts 216°
2026-04-22 10:35 48.06494 22.02569 34096 ft 433 kts 216°
2026-04-22 10:35 48.01590 21.97367 34091 ft 432 kts 216°
2026-04-22 10:36 47.96723 21.92215 34093 ft 432 kts 216°
2026-04-22 10:36 47.91816 21.87034 34093 ft 431 kts 216°
2026-04-22 10:37 47.84479 21.79308 34094 ft 432 kts 216°
2026-04-22 10:38 47.79576 21.74161 34091 ft 432 kts 216°
2026-04-22 10:38 47.74689 21.69043 34088 ft 431 kts 216°
2026-04-22 10:39 47.69790 21.63924 34087 ft 431 kts 216°
2026-04-22 10:39 47.64894 21.58820 34095 ft 431 kts 216°
2026-04-22 10:40 47.60007 21.53738 34094 ft 430 kts 216°
2026-04-22 10:40 47.55132 21.48680 34099 ft 431 kts 216°
2026-04-22 10:41 47.50220 21.43596 34097 ft 431 kts 216°
2026-04-22 10:41 47.45326 21.38541 34100 ft 430 kts 217°
2026-04-22 10:42 47.40434 21.33500 34100 ft 431 kts 216°
2026-04-22 10:42 47.35538 21.28465 34106 ft 431 kts 216°
2026-04-22 10:43 47.30636 21.23436 34103 ft 431 kts 216°
2026-04-22 10:43 47.25715 21.18401 34105 ft 430 kts 216°
2026-04-22 10:44 47.20823 21.13409 34101 ft 430 kts 216°
2026-04-22 10:44 47.15899 21.08395 34116 ft 431 kts 216°
2026-04-22 10:45 47.11002 21.03418 34105 ft 430 kts 216°
2026-04-22 10:45 47.06102 20.98449 34105 ft 430 kts 216°
2026-04-22 10:46 47.01188 20.93477 34109 ft 429 kts 216°
2026-04-22 10:46 46.96272 20.88514 34106 ft 429 kts 216°
2026-04-22 10:47 46.91364 20.83573 34113 ft 430 kts 216°
2026-04-22 10:47 46.86467 20.78655 34105 ft 430 kts 216°
2026-04-22 10:48 46.81518 20.73695 34104 ft 429 kts 216°
2026-04-22 10:48 46.76621 20.68795 34113 ft 429 kts 216°
2026-04-22 10:49 46.71717 20.63899 34112 ft 428 kts 216°
2026-04-22 10:49 46.66825 20.59028 34109 ft 429 kts 216°
2026-04-22 10:50 46.61908 20.54144 34116 ft 429 kts 216°
2026-04-22 10:50 46.56977 20.49257 34118 ft 429 kts 216°
2026-04-22 10:51 46.52054 20.44388 34118 ft 428 kts 217°
2026-04-22 10:51 46.47154 20.39551 34113 ft 427 kts 217°
2026-04-22 10:52 46.42247 20.34720 34114 ft 426 kts 216°
2026-04-22 10:52 46.37360 20.29916 34118 ft 427 kts 216°
2026-04-22 10:53 46.32458 20.25110 34111 ft 427 kts 216°
2026-04-22 10:53 46.27570 20.20331 34124 ft 427 kts 216°
2026-04-22 10:54 46.22664 20.15542 34121 ft 426 kts 216°
2026-04-22 10:54 46.17755 20.10760 34128 ft 425 kts 216°
2026-04-22 10:55 46.12453 20.06858 34126 ft 426 kts 206°
2026-04-22 10:55 46.07044 20.03356 34125 ft 427 kts 206°
2026-04-22 10:56 46.01572 19.99814 34132 ft 427 kts 206°
2026-04-22 10:56 45.96170 19.96323 34135 ft 427 kts 206°
2026-04-22 10:57 45.90741 19.92825 34127 ft 428 kts 206°
2026-04-22 10:57 45.85318 19.89335 34124 ft 426 kts 206°
2026-04-22 10:58 45.79945 19.85887 34128 ft 426 kts 207°
2026-04-22 10:58 45.74519 19.82412 34126 ft 427 kts 207°
2026-04-22 10:59 45.69117 19.78961 34124 ft 426 kts 207°
2026-04-22 10:59 45.63723 19.75517 34125 ft 426 kts 207°
2026-04-22 11:00 45.58284 19.72055 34125 ft 426 kts 207°
2026-04-22 11:00 45.52880 19.68625 34127 ft 426 kts 207°
2026-04-22 11:01 45.47491 19.65207 34123 ft 426 kts 207°
2026-04-22 11:01 45.42108 19.61801 34120 ft 426 kts 207°
2026-04-22 11:02 45.36704 19.58391 34121 ft 426 kts 207°
2026-04-22 11:02 45.31309 19.54993 34122 ft 425 kts 208°
2026-04-22 11:03 45.25928 19.51610 34126 ft 425 kts 208°
2026-04-22 11:03 45.20526 19.48222 34120 ft 424 kts 208°
2026-04-22 11:04 45.15122 19.44841 34134 ft 424 kts 208°
2026-04-22 11:04 45.09755 19.41487 34124 ft 424 kts 208°
2026-04-22 11:05 45.04387 19.38141 34133 ft 423 kts 208°
2026-04-22 11:05 44.99003 19.34791 34133 ft 423 kts 207°
2026-04-22 11:06 44.93613 19.31447 34141 ft 424 kts 208°
2026-04-22 11:06 44.88210 19.28099 34140 ft 424 kts 208°
2026-04-22 11:07 44.82831 19.24774 34143 ft 423 kts 208°
2026-04-22 11:07 44.77468 19.21467 34135 ft 422 kts 208°
2026-04-22 11:08 44.72096 19.18154 34140 ft 422 kts 208°
2026-04-22 11:08 44.66719 19.14852 34129 ft 422 kts 208°
2026-04-22 11:09 44.61351 19.11562 34127 ft 422 kts 208°
2026-04-22 11:09 44.58771 19.09680 34098 ft 414 kts 220°
2026-04-22 11:09 44.56410 19.07303 34134 ft 415 kts 220°
2026-04-22 11:10 44.51702 19.02578 34128 ft 413 kts 221°
2026-04-22 11:10 44.46985 18.97863 34129 ft 413 kts 221°
2026-04-22 11:11 44.42301 18.93190 34128 ft 414 kts 221°
2026-04-22 11:11 44.37645 18.88565 34123 ft 412 kts 221°
2026-04-22 11:12 44.32965 18.83914 34121 ft 413 kts 221°
2026-04-22 11:12 44.28328 18.79327 34120 ft 411 kts 221°
2026-04-22 11:13 44.23661 18.74711 34116 ft 411 kts 221°
2026-04-22 11:13 44.19026 18.70137 34103 ft 410 kts 221°
2026-04-22 11:14 44.14376 18.65557 34094 ft 409 kts 222°
2026-04-22 11:14 44.09728 18.60989 34094 ft 409 kts 222°
2026-04-22 11:15 44.05117 18.56469 34073 ft 408 kts 222°
2026-04-22 11:15 44.00479 18.51926 34077 ft 409 kts 222°
2026-04-22 11:16 43.95841 18.47395 34082 ft 408 kts 222°
2026-04-22 11:16 43.90614 18.44184 34131 ft 428 kts 199°
2026-04-22 11:17 43.84764 18.42504 34094 ft 430 kts 199°
2026-04-22 11:17 43.78887 18.40825 34098 ft 431 kts 199°
2026-04-22 11:18 43.73056 18.39163 34065 ft 429 kts 199°
2026-04-22 11:18 43.67218 18.37501 34059 ft 429 kts 200°
2026-04-22 11:19 43.61362 18.35832 34041 ft 431 kts 200°
2026-04-22 11:19 43.55516 18.34165 34081 ft 431 kts 199°
2026-04-22 11:20 43.49633 18.32503 34055 ft 432 kts 199°
2026-04-22 11:20 43.43783 18.30845 34063 ft 431 kts 199°
2026-04-22 11:21 43.37942 18.29196 34046 ft 430 kts 199°
2026-04-22 11:21 43.32066 18.27539 34044 ft 430 kts 200°
2026-04-22 11:22 43.26201 18.25892 34020 ft 429 kts 200°
2026-04-22 11:22 43.20353 18.24245 34045 ft 430 kts 200°
2026-04-22 11:23 43.14485 18.22605 34033 ft 431 kts 200°
2026-04-22 11:23 43.08647 18.20969 34029 ft 430 kts 200°
2026-04-22 11:24 43.02782 18.19331 34024 ft 432 kts 200°
2026-04-22 11:24 42.96910 18.17697 34017 ft 432 kts 201°
2026-04-22 11:25 42.91029 18.16060 34034 ft 431 kts 201°
2026-04-22 11:25 42.85144 18.14429 34009 ft 430 kts 201°
2026-04-22 11:26 42.79535 18.12269 33995 ft 401 kts 223°
2026-04-22 11:26 42.75106 18.07819 34004 ft 397 kts 227°
2026-04-22 11:27 42.70690 18.03300 34004 ft 396 kts 227°
2026-04-22 11:27 42.66273 17.98781 34010 ft 396 kts 228°
2026-04-22 11:28 42.61908 17.94320 34003 ft 396 kts 228°
2026-04-22 11:28 42.57506 17.89835 33992 ft 395 kts 228°
2026-04-22 11:29 42.53116 17.85372 34004 ft 397 kts 228°
2026-04-22 11:29 42.48718 17.80912 34013 ft 396 kts 228°
2026-04-22 11:30 42.44326 17.76451 34022 ft 397 kts 228°
2026-04-22 11:30 42.39945 17.72024 34007 ft 392 kts 228°
2026-04-22 11:31 42.35590 17.67623 34004 ft 396 kts 229°
2026-04-22 11:31 42.31181 17.63181 34009 ft 394 kts 229°
2026-04-22 11:32 42.26809 17.58776 34011 ft 394 kts 229°
2026-04-22 11:32 42.22419 17.54366 34030 ft 396 kts 229°
2026-04-22 11:33 42.17982 17.49921 34007 ft 397 kts 229°
2026-04-22 11:33 42.13612 17.45549 34011 ft 391 kts 230°
2026-04-22 11:34 42.09227 17.41160 34022 ft 395 kts 230°
2026-04-22 11:34 42.04812 17.36763 34021 ft 393 kts 230°
2026-04-22 11:35 42.00386 17.32352 34039 ft 396 kts 229°
2026-04-22 11:35 41.95969 17.27961 34030 ft 397 kts 229°
2026-04-22 11:36 41.91421 17.23722 34030 ft 406 kts 223°
2026-04-22 11:36 41.86499 17.19906 34026 ft 408 kts 223°
2026-04-22 11:37 41.81583 17.16091 34023 ft 407 kts 223°
2026-04-22 11:37 41.76703 17.12309 34023 ft 406 kts 223°
2026-04-22 11:38 41.71824 17.08531 34023 ft 409 kts 223°
2026-04-22 11:38 41.64453 17.02837 34026 ft 409 kts 223°
2026-04-22 11:39 41.59536 16.99045 34032 ft 409 kts 223°
2026-04-22 11:39 41.54594 16.95246 34027 ft 411 kts 223°
2026-04-22 11:40 41.49681 16.91472 34026 ft 411 kts 223°
2026-04-22 11:40 41.44717 16.87667 34027 ft 410 kts 223°
2026-04-22 11:41 41.39767 16.83873 34030 ft 414 kts 223°
2026-04-22 11:41 41.34817 16.80091 34036 ft 413 kts 222°
2026-04-22 11:42 41.29823 16.76288 34031 ft 413 kts 222°
2026-04-22 11:42 41.24854 16.72504 34036 ft 413 kts 222°
2026-04-22 11:43 41.19871 16.68716 34031 ft 416 kts 223°
2026-04-22 11:43 41.14872 16.64922 34034 ft 416 kts 222°
2026-04-22 11:44 41.09875 16.61141 34033 ft 415 kts 222°
2026-04-22 11:44 41.04873 16.57361 34028 ft 415 kts 222°
2026-04-22 11:45 40.99889 16.53601 34021 ft 412 kts 222°
2026-04-22 11:45 40.94904 16.49846 34019 ft 416 kts 222°
2026-04-22 11:46 40.89839 16.46036 34019 ft 414 kts 222°
2026-04-22 11:46 40.84853 16.42295 34002 ft 412 kts 221°
2026-04-22 11:47 40.79848 16.38546 34004 ft 416 kts 222°
2026-04-22 11:47 40.74801 16.34768 34003 ft 418 kts 221°
2026-04-22 11:48 40.69742 16.30989 34016 ft 417 kts 220°
2026-04-22 11:48 40.64713 16.27245 34015 ft 415 kts 220°
2026-04-22 11:49 40.59666 16.23489 34023 ft 414 kts 221°
2026-04-22 11:49 40.54598 16.19722 34019 ft 417 kts 220°
2026-04-22 11:50 40.49556 16.15984 34021 ft 416 kts 220°
2026-04-22 11:50 40.44491 16.12237 34023 ft 420 kts 220°
2026-04-22 11:51 40.39360 16.08448 34017 ft 419 kts 220°
2026-04-22 11:51 40.34268 16.04691 34023 ft 415 kts 220°
2026-04-22 11:52 40.29163 16.00931 34016 ft 419 kts 220°
2026-04-22 11:52 40.24076 15.97195 34020 ft 419 kts 219°
2026-04-22 11:53 40.18976 15.93451 34013 ft 416 kts 219°
2026-04-22 11:53 40.13881 15.89720 34015 ft 417 kts 219°
2026-04-22 11:54 40.08764 15.85981 34014 ft 419 kts 219°
2026-04-22 11:54 40.03713 15.82292 34011 ft 415 kts 219°
2026-04-22 11:55 39.98987 15.78085 34030 ft 406 kts 228°
2026-04-22 11:55 39.94525 15.73498 34010 ft 407 kts 228°
2026-04-22 11:56 39.90058 15.68910 34008 ft 406 kts 228°
2026-04-22 11:56 39.85614 15.64354 33993 ft 409 kts 228°
2026-04-22 11:57 39.81176 15.59822 33984 ft 407 kts 227°
2026-04-22 11:57 39.76688 15.55246 33978 ft 410 kts 227°
2026-04-22 11:58 39.72206 15.50677 33976 ft 410 kts 227°
2026-04-22 11:58 39.67722 15.46119 33975 ft 413 kts 227°
2026-04-22 11:59 39.63187 15.41520 33974 ft 410 kts 227°
2026-04-22 11:59 39.58629 15.36898 33972 ft 413 kts 227°
2026-04-22 12:00 39.54056 15.32274 33985 ft 414 kts 226°
2026-04-22 12:00 39.49506 15.27683 33985 ft 413 kts 226°
2026-04-22 12:01 39.44931 15.23076 33988 ft 414 kts 226°
2026-04-22 12:01 39.40367 15.18481 33986 ft 413 kts 226°
2026-04-22 12:02 39.35775 15.13868 33984 ft 414 kts 226°
2026-04-22 12:02 39.31213 15.09290 33988 ft 416 kts 225°
2026-04-22 12:03 39.26606 15.04682 33987 ft 417 kts 225°
2026-04-22 12:03 39.22013 15.00096 33987 ft 416 kts 225°
2026-04-22 12:04 39.17416 14.95508 33987 ft 416 kts 225°
2026-04-22 12:04 39.12809 14.90917 33989 ft 417 kts 225°
2026-04-22 12:05 39.08210 14.86348 33989 ft 415 kts 225°
2026-04-22 12:05 39.03634 14.81803 33990 ft 416 kts 225°
2026-04-22 12:06 38.99053 14.77265 33987 ft 417 kts 225°
2026-04-22 12:06 38.94477 14.72737 33987 ft 416 kts 224°
2026-04-22 12:07 38.89894 14.68211 33987 ft 417 kts 224°
2026-04-22 12:07 38.85294 14.63674 33974 ft 418 kts 224°
2026-04-22 12:08 38.80693 14.59145 33980 ft 417 kts 224°
2026-04-22 12:08 38.76093 14.54628 33975 ft 418 kts 224°
2026-04-22 12:09 38.71462 14.50085 33973 ft 418 kts 224°
2026-04-22 12:09 38.66848 14.45567 33974 ft 416 kts 224°
2026-04-22 12:10 38.62220 14.41041 33973 ft 415 kts 223°
2026-04-22 12:10 38.57619 14.36551 33967 ft 415 kts 223°
2026-04-22 12:11 38.52978 14.32028 33975 ft 418 kts 223°
2026-04-22 12:11 38.48331 14.27513 33976 ft 418 kts 223°
2026-04-22 12:12 38.43682 14.22992 33977 ft 418 kts 223°
2026-04-22 12:12 38.39052 14.18502 33978 ft 417 kts 223°
2026-04-22 12:13 38.34413 14.14012 33979 ft 416 kts 222°
2026-04-22 12:13 38.29830 14.09583 33970 ft 414 kts 222°
2026-04-22 12:14 38.25246 14.05161 33974 ft 415 kts 222°
2026-04-22 12:14 38.20641 14.00725 33976 ft 415 kts 222°
2026-04-22 12:15 38.16050 13.96311 33983 ft 415 kts 222°
2026-04-22 12:15 38.11445 13.91888 33984 ft 416 kts 222°
2026-04-22 12:16 38.06828 13.87462 33981 ft 416 kts 222°
2026-04-22 12:16 38.02213 13.83044 33984 ft 415 kts 222°
2026-04-22 12:17 37.97633 13.78674 33977 ft 415 kts 222°
2026-04-22 12:17 37.93032 13.74284 33981 ft 414 kts 222°
2026-04-22 12:18 37.88436 13.69904 33987 ft 413 kts 222°
2026-04-22 12:18 37.83871 13.65564 33992 ft 413 kts 222°
2026-04-22 12:19 37.79287 13.61211 34000 ft 412 kts 222°
2026-04-22 12:19 37.74714 13.56878 34010 ft 411 kts 223°
2026-04-22 12:20 37.70131 13.52540 33999 ft 410 kts 223°
2026-04-22 12:20 37.65543 13.48204 33988 ft 411 kts 223°
2026-04-22 12:21 37.60982 13.43900 33974 ft 410 kts 223°
2026-04-22 12:21 37.56413 13.39599 33964 ft 410 kts 223°
2026-04-22 12:22 37.51882 13.35335 33956 ft 409 kts 223°
2026-04-22 12:22 37.47329 13.31059 33956 ft 409 kts 222°
2026-04-22 12:23 37.42765 13.26782 33957 ft 408 kts 222°
2026-04-22 12:23 37.38223 13.22532 33945 ft 406 kts 223°
2026-04-22 12:24 37.33585 13.18382 33927 ft 412 kts 216°
2026-04-22 12:24 37.28635 13.14787 33944 ft 410 kts 216°
2026-04-22 12:25 37.23699 13.11200 33945 ft 411 kts 216°
2026-04-22 12:25 37.18755 13.07616 33942 ft 409 kts 216°
2026-04-22 12:26 37.13813 13.04036 33938 ft 410 kts 216°
2026-04-22 12:26 37.08879 13.00467 33937 ft 410 kts 216°
2026-04-22 12:27 37.03975 12.96926 33948 ft 409 kts 216°
2026-04-22 12:27 36.99082 12.93399 33947 ft 408 kts 217°
2026-04-22 12:28 36.94152 12.89848 33947 ft 406 kts 217°
2026-04-22 12:28 36.89262 12.86330 33944 ft 407 kts 217°
2026-04-22 12:29 36.84355 12.82809 33943 ft 406 kts 217°
2026-04-22 12:29 36.79462 12.79302 33945 ft 406 kts 217°
2026-04-22 12:30 36.72090 12.74024 33947 ft 406 kts 216°
2026-04-22 12:31 36.67183 12.70523 33948 ft 407 kts 217°
2026-04-22 12:31 36.62308 12.67045 33947 ft 407 kts 216°
2026-04-22 12:32 36.57407 12.63554 33947 ft 406 kts 216°
2026-04-22 12:32 36.50021 12.58321 33944 ft 408 kts 214°
2026-04-22 12:33 36.44765 12.55331 33946 ft 410 kts 211°
2026-04-22 12:33 36.39513 12.52390 33945 ft 410 kts 211°
2026-04-22 12:34 36.34323 12.49480 33946 ft 411 kts 211°
2026-04-22 12:34 36.29113 12.46562 33946 ft 411 kts 211°
2026-04-22 12:35 36.23915 12.43657 33949 ft 410 kts 211°
2026-04-22 12:35 36.18715 12.40751 33949 ft 410 kts 211°
2026-04-22 12:36 36.13512 12.37851 33946 ft 411 kts 211°
2026-04-22 12:36 36.08312 12.34954 33942 ft 410 kts 210°
2026-04-22 12:37 36.03095 12.32053 33952 ft 411 kts 210°
2026-04-22 12:37 35.97907 12.29174 33949 ft 410 kts 210°
2026-04-22 12:38 35.92712 12.26294 33947 ft 410 kts 210°
2026-04-22 12:38 35.87496 12.23406 33938 ft 410 kts 210°
2026-04-22 12:39 35.79691 12.19092 33930 ft 411 kts 209°
2026-04-22 12:40 35.74500 12.16229 33928 ft 410 kts 209°
2026-04-22 12:40 35.69298 12.13366 33925 ft 409 kts 209°
2026-04-22 12:41 35.64110 12.10510 33927 ft 408 kts 209°
2026-04-22 12:41 35.58899 12.07647 33925 ft 409 kts 209°
2026-04-22 12:42 35.53730 12.04813 33925 ft 409 kts 209°
2026-04-22 12:42 35.48529 12.01967 33927 ft 409 kts 209°
2026-04-22 12:43 35.43333 11.99121 33927 ft 409 kts 209°
2026-04-22 12:43 35.38142 11.96288 33930 ft 408 kts 209°
2026-04-22 12:44 35.32969 11.93468 33932 ft 408 kts 208°
2026-04-22 12:44 35.27772 11.90638 33930 ft 408 kts 208°
2026-04-22 12:45 35.22583 11.87816 33929 ft 408 kts 208°
2026-04-22 12:45 35.17415 11.85010 33927 ft 408 kts 209°
2026-04-22 12:46 35.12230 11.82196 33927 ft 407 kts 208°
2026-04-22 12:46 35.07039 11.79384 33925 ft 407 kts 208°
2026-04-22 12:47 35.01886 11.76599 33925 ft 407 kts 208°
2026-04-22 12:47 34.96692 11.73793 33923 ft 407 kts 208°
2026-04-22 12:48 34.91529 11.71010 33921 ft 408 kts 208°
2026-04-22 12:48 34.86315 11.68203 33920 ft 408 kts 208°
2026-04-22 12:49 34.81150 11.65424 33922 ft 407 kts 208°
2026-04-22 12:49 34.75950 11.62632 33919 ft 408 kts 208°
2026-04-22 12:50 34.70770 11.59853 33923 ft 408 kts 208°
2026-04-22 12:50 34.65557 11.57063 33926 ft 408 kts 208°
2026-04-22 12:51 34.60399 11.54303 33926 ft 407 kts 208°
2026-04-22 12:51 34.55212 11.51534 33921 ft 407 kts 208°
2026-04-22 12:52 34.50526 11.47953 33943 ft 397 kts 227°
2026-04-22 12:52 34.46453 11.43377 33916 ft 397 kts 227°
2026-04-22 12:53 34.42368 11.38777 33917 ft 397 kts 227°
2026-04-22 12:53 34.38310 11.34222 33920 ft 397 kts 226°
2026-04-22 12:54 34.34280 11.29666 33919 ft 396 kts 227°
2026-04-22 12:54 34.30278 11.25121 33917 ft 396 kts 227°
2026-04-22 12:55 34.26263 11.20567 33915 ft 394 kts 227°
2026-04-22 12:55 34.24295 11.18339 32689 ft 402 kts 226°
2026-04-22 12:55 34.22236 11.15990 30659 ft 421 kts 226°
2026-04-22 12:55 34.20094 11.13566 29499 ft 418 kts 226°
2026-04-22 12:56 34.17984 11.11190 28652 ft 410 kts 226°
2026-04-22 12:56 34.15940 11.08882 27763 ft 403 kts 226°
2026-04-22 12:56 34.13907 11.06585 26814 ft 398 kts 226°
2026-04-22 12:56 34.11921 11.04347 25898 ft 392 kts 226°
2026-04-22 12:57 34.09938 11.02111 24973 ft 387 kts 226°
2026-04-22 12:57 34.07985 10.99911 24037 ft 382 kts 226°
2026-04-22 12:57 34.06080 10.97770 22737 ft 373 kts 226°
2026-04-22 12:57 34.04251 10.95710 21017 ft 367 kts 226°
2026-04-22 12:58 34.02485 10.93596 19232 ft 359 kts 236°
2026-04-22 12:58 34.01352 10.91205 16178 ft 345 kts 258°
2026-04-22 12:58 34.01348 10.88601 13903 ft 314 kts 288°
2026-04-22 12:58 34.02324 10.86469 11835 ft 296 kts 316°
2026-04-22 12:59 34.03855 10.85035 9728 ft 286 kts 319°
2026-04-22 12:59 34.04906 10.83111 8565 ft 274 kts 295°
2026-04-22 12:59 34.05571 10.81130 8350 ft 263 kts 289°
2026-04-22 12:59 34.05930 10.78944 7717 ft 266 kts 279°
2026-04-22 13:00 34.06049 10.76741 7275 ft 262 kts 272°
2026-04-22 13:00 34.05957 10.74585 6795 ft 261 kts 265°
2026-04-22 13:00 34.05668 10.72416 6279 ft 260 kts 259°
2026-04-22 13:00 34.05201 10.70320 5777 ft 259 kts 253°
2026-04-22 13:01 34.04568 10.68300 5290 ft 258 kts 248°
2026-04-22 13:01 34.03786 10.66394 4816 ft 258 kts 242°
2026-04-22 13:01 34.02835 10.64555 4524 ft 258 kts 236°
2026-04-22 13:01 34.01736 10.62829 4327 ft 255 kts 230°
2026-04-22 13:02 34.00537 10.61283 4116 ft 253 kts 225°
2026-04-22 13:02 33.99220 10.59881 3876 ft 253 kts 219°
2026-04-22 13:02 33.97790 10.58630 3624 ft 252 kts 213°
2026-04-22 13:02 33.96290 10.57566 3394 ft 251 kts 207°
2026-04-22 13:03 33.94723 10.56683 3175 ft 249 kts 202°
2026-04-22 13:03 33.93062 10.55971 3063 ft 246 kts 196°
2026-04-22 13:03 33.91434 10.55547 2925 ft 238 kts 187°
2026-04-22 13:03 33.89806 10.55247 2779 ft 237 kts 181°
2026-04-22 13:04 33.88281 10.55852 2576 ft 232 kts 140°
2026-04-22 13:04 33.87390 10.57427 2491 ft 229 kts 113°
2026-04-22 13:04 33.86896 10.59211 2446 ft 216 kts 92°
2026-04-22 13:04 33.87037 10.60883 2363 ft 205 kts 84°
2026-04-22 13:05 33.87159 10.62500 2107 ft 179 kts 85°
2026-04-22 13:05 33.87184 10.63856 1875 ft 153 kts 88°
2026-04-22 13:05 33.87220 10.65105 1693 ft 146 kts 87°
2026-04-22 13:05 33.87250 10.66330 1554 ft 146 kts 88°
2026-04-22 13:06 33.87279 10.67546 1362 ft 145 kts 87°
2026-04-22 13:06 33.87309 10.68751 1165 ft 141 kts 87°
2026-04-22 13:06 33.87335 10.69910 928 ft 135 kts 87°
2026-04-22 13:06 33.87377 10.71001 771 ft 132 kts 85°
2026-04-22 13:07 33.87407 10.72108 611 ft 132 kts 86°
2026-04-22 13:07 33.87436 10.73198 476 ft 129 kts 86°
2026-04-22 13:07 33.87463 10.74290 315 ft 131 kts 85°
2026-04-22 13:07 33.87485 10.75385 148 ft 130 kts 86°
2026-04-22 13:08 33.87513 10.76440 24 ft 116 kts 86°
2026-04-22 13:08 33.87536 10.77276 22 ft 84 kts 88°
2026-04-22 13:08 33.87551 10.77877 26 ft 62 kts 89°
2026-04-22 13:08 33.87561 10.78327 26 ft 46 kts 89°
2026-04-22 13:09 33.87566 10.78525 26 ft 2 kts 77°
2026-04-22 13:09 33.87567 10.78528 26 ft 0 kts 69°
2026-04-22 13:09 33.87579 10.78549 26 ft 6 kts 52°
2026-04-22 13:09 33.87601 10.78602 26 ft 5 kts 99°
2026-04-22 13:10 33.87579 10.78626 26 ft 4 kts 172°
2026-04-22 13:10 33.87555 10.78606 26 ft 4 kts 262°
2026-04-22 13:10 33.87554 10.78536 26 ft 11 kts 270°
2026-04-22 13:10 33.87555 10.78420 26 ft 15 kts 271°
2026-04-22 13:11 33.87558 10.78283 26 ft 17 kts 269°
2026-04-22 13:11 33.87558 10.78128 26 ft 19 kts 270°
2026-04-22 13:11 33.87554 10.77955 26 ft 21 kts 270°
2026-04-22 13:11 33.87548 10.77782 26 ft 17 kts 255°
2026-04-22 13:12 33.87466 10.77724 27 ft 13 kts 181°
2026-04-22 13:12 33.87396 10.77748 27 ft 9 kts 121°
2026-04-22 13:12 33.87392 10.77828 28 ft 10 kts 87°
2026-04-22 13:12 33.87394 10.77924 28 ft 12 kts 88°
2026-04-22 13:13 33.87397 10.78032 28 ft 13 kts 88°
2026-04-22 13:13 33.87396 10.78137 28 ft 9 kts 117°
2026-04-22 13:13 33.87367 10.78157 28 ft 2 kts 179°
2026-04-22 13:13 33.87358 10.78157 29 ft 0 kts 179°
2026-04-22 13:14 33.87342 10.78157 29 ft 4 kts 179°
2026-04-22 13:14 33.87308 10.78159 29 ft 4 kts 177°
2026-04-22 13:14 33.87299 10.78159 29 ft 0 kts 178°